Flag for Germany Weather past 2 weeks in Rottenburg am Neckar, Baden-Württemberg, Germany

Now
54 °F

Light rain. Overcast.


Feels Like: 50 °F
Forecast: 36 / 42 °F
Wind: 13 mph from Southwest

Location: Stuttgart-Echterdingen

Current Time: Mar 31, 2015 at 11:24:07 AM

Latest Report: Mar 31, 2015 at 10:00 AM


Visibility: 25 mi

Pressure: 29.60 "Hg

Humidity: 69%

Dew point: 44 °F

Location of Rottenburg am NeckarLocation

Historic Weather in Rottenburg am Neckar — Graph

°F

Rottenburg am Neckar temperature yesterday

Maximum temperature yesterday: 50 °F (at 12:00 AM)
Minimum temperature yesterday: 44 °F (at 10:00 PM)
Average temperature yesterday: 46 °F

Past Weeks' High & Low Weather Summary

 TemperatureHumidityPressure
High65 °F (Mar 17, 3:00 PM)97% (Mar 24, 6:00 AM)30.30 "Hg (Mar 24, 6:00 AM)
Low30 °F (Mar 24, 7:00 AM)29% (Mar 17, 4:00 PM)29.56 "Hg (Mar 25, 3:00 PM)
Average46 °F67%30.01 "Hg
* Reported Mar 16 9:00 AM — Mar 31 10:00 AM, Rottenburg am Neckar, Weather by CustomWeather, © 2015

Note: Actual official high and low records may vary slightly from our data, if they occured in-between our weather recording intervals... More about our weather records

Advertising

Rottenburg am Neckar weather history for previous 24 hours

 ConditionsComfort  
Time TempWeatherWind HumidityBarometerVisibility
10:00 AM
Tue, Mar 31
54 °FLight rain. Overcast.13 mph69%29.60 "Hg25 mi
9:00 AM55 °FOvercast.13 mph66%29.56 "Hg47 mi
8:00 AM55 °FOvercast.13 mph69%29.57 "Hg47 mi
7:00 AM54 °FOvercast.9 mph73%29.60 "Hg40 mi
6:00 AM53 °FOvercast.10 mph79%29.60 "Hg3 mi
4:00 AM46 °FLight rain. Overcast.6 mph80%29.72 "Hg25 mi
3:00 AM45 °FOvercast.5 mph73%29.80 "Hg25 mi
2:00 AM44 °FLight rain. Overcast.2 mph68%29.86 "Hg22 mi
1:00 AM43 °FOvercast.5 mph66%29.91 "Hg25 mi
12:00 AM42 °FPassing clouds.2 mph67%29.95 "Hg28 mi
10:00 PM
Mon, Mar 30
44 °FPassing clouds.6 mph62%29.97 "Hg28 mi
9:00 PM44 °FPassing clouds.6 mph59%29.96 "Hg34 mi
8:00 PM46 °FOvercast.8 mph52%29.93 "Hg25 mi
7:00 PM48 °FOvercast.10 mph51%29.88 "Hg25 mi
6:00 PM48 °FOvercast.10 mph58%29.86 "Hg25 mi
4:00 PM47 °FSprinkles. Overcast.12 mph63%29.82 "Hg19 mi
3:00 PM44 °FOvercast.10 mph81%29.82 "Hg7 mi
2:00 PM49 °FPartly sunny.14 mph66%29.74 "Hg25 mi
1:00 PM44 °FSprinkles. Overcast.12 mph79%29.74 "Hg19 mi
12:00 PM46 °FPartly sunny.14 mph76%29.72 "Hg16 mi
Weather by CustomWeather, © 2015

See weather overviewHow to use our weather pages